[[[{"header":{"parameterUnit":"kt","parameterCategory":2,"dx":1,"dy":1,"la1":30.253999710083008,"la2":30.299108505249023,"lo1":-89.0895004272461,"lo2":-89.04439544677734,"nx":28,"ny":28,"refTime":"2022-10-29T21:00:00:Z","depth":0,"parameterNumber":1,"parameterNumberName":"U-component_of_WINDS"},"data":[4.3858,4.401,4.4064,4.4261,4.4343,4.4486,4.4555,4.4649,4.4737,4.4913,4.5024,4.5093,4.5201,4.5345,4.5467,4.5495,4.5541,4.5555,4.5584,4.5474,4.5463,4.5451,4.5418,4.5565,4.5566,4.5689,4.569,4.5691,4.3771,4.3854,4.3975,4.4129,4.4232,4.4251,4.4374,4.4459,4.4586,4.4697,4.4809,4.4968,4.51,4.5206,4.5342,4.5412,4.5427,4.5445,4.5438,4.5454,4.534,4.5304,4.543,4.543,4.543,4.543,4.543,4.543,4.3627,4.3716,4.3841,4.3973,4.4065,4.4167,4.426,4.4344,4.4462,4.4612,4.4653,4.4798,4.4918,4.5108,4.5185,4.5298,4.5288,4.5323,4.5331,4.5338,4.5337,4.5146,4.5324,4.5324,4.5324,4.5324,4.5324,0,4.3537,4.3576,4.3696,4.3832,4.3931,4.4042,4.4152,4.4212,4.4312,4.4405,4.4545,4.4634,4.4809,4.4945,4.5084,4.5158,4.5184,4.5194,4.5217,4.5196,4.516,4.5177,4.4985,4.5187,4.5186,4.5185,4.5185,4.5185,4.3392,4.349,4.3647,4.3724,4.3798,4.3921,4.4005,4.4087,4.4172,4.4319,4.4393,4.4531,4.4646,4.4859,4.4953,4.5084,4.5097,4.5168,4.5117,4.5094,4.5094,4.5086,4.5095,4.5174,4.5176,4.5177,4.5178,0,4.3304,4.3393,4.3563,4.3709,4.3748,4.3847,4.3971,4.4063,4.4134,4.4271,4.4307,4.4418,4.4552,4.4637,4.4808,4.4847,4.5007,4.5019,4.4966,4.4971,4.504,4.5031,4.5258,4.5291,4.5143,4.5144,4.5145,0,4.3213,4.3339,4.3463,4.3558,4.3701,4.378,4.3919,4.3993,4.4099,4.4207,4.4252,4.4352,4.4445,4.4557,4.4616,4.4762,4.4796,4.4833,4.4846,4.4827,4.4821,4.4869,4.486,4.4877,4.4876,4.4875,4.4874,0,4.3063,4.3279,4.3433,4.3497,4.3664,4.3735,4.3807,4.3926,4.4007,4.4127,4.418,4.4314,4.4386,4.4488,4.456,4.4522,4.4743,4.4705,4.4781,4.4779,4.4822,4.4817,4.5001,4.4872,4.4872,4.4871,4.4871,0,4.3001,4.3122,4.3333,4.3473,4.3527,4.3629,4.3765,4.3872,4.3994,4.4037,4.4132,4.4171,4.4308,4.4264,4.4454,4.4383,4.4451,4.45,4.4507,4.4521,4.4468,4.4555,4.4726,4.4744,4.4538,4.4535,4.4533,0,4.2803,4.3041,4.311,4.3309,4.343,4.3472,4.3587,4.3693,4.3761,4.3873,4.3948,4.4074,4.4059,4.411,4.4194,4.4274,4.4367,4.4265,4.442,4.4425,4.4382,4.4541,4.4543,4.468,4.4499,4.4502,4.4505,0,4.266,4.2864,4.2895,4.2969,4.3125,4.3226,4.3359,4.3502,4.3572,4.3688,4.3799,4.3981,4.3976,4.406,4.4105,4.4188,4.4307,4.4171,4.4175,4.4189,4.449,4.4491,4.4514,4.4319,4.4323,4.4327,4.4478,0,4.254,4.2672,4.276,4.2924,4.3016,4.3147,4.3237,4.3322,4.3356,4.3424,4.3591,4.3701,4.3845,4.3895,4.3929,4.4092,4.4077,4.4071,4.403,4.4135,4.4187,4.4208,4.3946,4.3946,4.3945,4.3945,0,0,4.2327,4.2516,4.2588,4.272,4.2801,4.2842,4.2973,4.3058,4.3227,4.3282,4.3261,4.3532,4.3622,4.3813,4.3853,4.3913,4.3949,4.3909,4.4086,4.4101,4.4115,4.4169,4.419,4.3944,4.3944,4.3943,4.3943,0,4.2301,4.2395,4.2525,4.2616,4.2753,4.2819,4.2851,4.2993,4.3043,4.3208,4.3236,4.3347,4.3562,4.3652,4.3726,4.389,4.3903,4.3928,4.3984,4.4077,4.4093,4.4108,4.4163,4.4183,4.3942,4.3942,4.3942,0,4.2173,4.2279,4.2352,4.2542,4.2632,4.2756,4.2737,4.2869,4.2962,4.2997,4.3159,4.3232,4.3361,4.3532,4.3613,4.3595,4.3856,4.3791,4.3797,4.3807,4.3901,4.392,4.3937,4.3711,4.371,4.3708,0,0,4.2138,4.2261,4.2399,4.2543,4.2598,4.2699,4.2774,4.2816,4.2932,4.2978,4.3071,4.3182,4.3307,4.3388,4.351,4.3686,4.3718,4.3759,4.377,4.3779,4.3792,4.3889,4.3908,4.3704,4.3704,4.3704,0,0,4.212,4.2286,4.2301,4.248,4.259,4.2734,4.2818,4.2839,4.2958,4.2953,4.3029,4.3062,4.3223,4.3294,4.3224,4.3497,4.3456,4.3475,4.3444,4.3459,4.347,4.3448,4.3218,0,0,0,0,0,4.2139,4.2266,4.2277,4.2321,4.2561,4.2728,4.2759,4.2825,4.2794,4.2859,4.2941,4.2952,4.3271,4.3212,4.3253,4.3329,4.3647,4.3657,4.3667,4.367,4.3684,4.3697,0,0,0,0,0,0,4.2157,4.221,4.2274,4.2423,4.2477,4.2724,4.2686,4.2708,4.2789,4.2789,4.2936,4.2957,4.3015,4.3195,4.3231,4.3302,4.3206,4.3651,4.3659,4.3667,4.3675,4.3687,4.3697,0,0,0,0,0,4.2171,4.2214,4.2582,4.2421,4.2469,4.2587,4.2682,4.27,4.2764,4.289,4.2911,4.2806,4.3016,4.3051,4.3217,4.3284,4.3181,4.3194,4.3656,4.3663,4.3669,4.3681,0,0,0,0,0,0,4.2182,4.2231,4.2593,4.261,4.2378,4.2575,4.2608,4.2693,4.2861,4.2883,4.2763,4.2761,4.3017,4.3044,4.3071,4.3274,4.3161,4.3175,4.3183,4.3662,4.3667,4.3672,0,0,0,0,0,0,4.2208,4.2245,4.2601,4.2543,4.2554,4.2563,4.2592,4.2743,4.2862,4.2724,4.2728,4.276,4.2977,4.304,4.3061,4.3294,4.3146,4.3158,4.3167,4.3173,4.3666,4.367,0,0,0,0,0,0,4.2225,4.2256,4.2539,4.2548,4.2557,4.2751,4.2697,4.2939,4.2813,4.2716,4.2804,4.2799,4.2973,4.2995,4.3054,4.3278,4.329,4.3146,4.3155,4.3161,4.3165,0,0,0,0,0,0,0,4.2238,4.2013,4.2493,4.2551,4.2559,4.2765,4.277,4.2775,4.2812,4.2809,4.2805,4.2801,4.3072,4.3086,4.31,4.3265,0,0,4.3145,4.3151,0,0,0,0,0,0,0,0,4.2001,4.201,4.2493,4.2497,4.25,4.2766,4.277,4.2774,4.2812,4.2809,4.2806,4.2803,4.3076,4.3087,4.3099,0,0,0,0,0,0,0,0,0,0,0,0,0,0,0,4.2494,4.2497,0,4.2767,4.277,4.2773,4.2811,4.2809,4.2806,4.2804,4.3079,4.3088,4.3098,0,0,0,0,0,0,0,0,0,0,0,0,0,0,0,0,0,0,0,0,0,0,0,0,0,0,0,0,0,0,0,0,0,0,0,0,0,0,0,0,0,0,0,0,0,0,0,0,0,0,0,0,0,0,0,0,0,0,0,0,0,0,0,0,0,0,0,0,0]}],[{"header":{"parameterUnit":"kt","parameterCategory":2,"dx":1,"dy":1,"la1":30.253999710083008,"la2":30.299108505249023,"lo1":-89.0895004272461,"lo2":-89.04439544677734,"nx":28,"ny":28,"refTime":"2022-10-29T21:00:00:Z","depth":0,"parameterNumber":2,"parameterNumberName":"V-component_of_WINDS"},"data":[3.6162,3.6207,3.6197,3.6243,3.6242,3.6271,3.6278,3.6286,3.629,3.6324,3.6341,3.6335,3.6334,3.6352,3.6369,3.6366,3.6375,3.6397,3.639,3.6297,3.6283,3.627,3.6259,3.6399,3.64,3.6488,3.6488,3.6489,3.6092,3.6092,3.6114,3.6128,3.6146,3.6117,3.6126,3.6143,3.617,3.6175,3.6192,3.6221,3.6242,3.6233,3.6252,3.6272,3.6259,3.6277,3.6276,3.6276,3.6176,3.6165,3.6287,3.6287,3.6287,3.6287,3.6287,3.6287,3.5963,3.5991,3.5994,3.6017,3.6022,3.6031,3.6055,3.6048,3.6069,3.6087,3.6071,3.6101,3.6104,3.6122,3.6125,3.6148,3.6126,3.6143,3.6147,3.6151,3.6158,3.6032,3.615,3.615,3.615,3.6149,3.6149,0,3.5865,3.5855,3.5876,3.5893,3.591,3.5923,3.5933,3.5947,3.5922,3.594,3.5966,3.5979,3.6004,3.6027,3.6042,3.6042,3.6014,3.601,3.6022,3.603,3.6036,3.6033,3.5871,3.6007,3.6006,3.6005,3.6004,3.6004,3.5734,3.5768,3.5767,3.5782,3.5786,3.5812,3.5825,3.58,3.5815,3.5823,3.5849,3.5871,3.5888,3.5931,3.5921,3.594,3.5927,3.598,3.593,3.5936,3.5928,3.5926,3.5929,3.599,3.5992,3.5994,3.5995,0,3.5661,3.5645,3.5694,3.569,3.569,3.5726,3.5722,3.5748,3.5738,3.5773,3.578,3.5764,3.5789,3.5771,3.5797,3.5786,3.5845,3.5831,3.5843,3.5839,3.5885,3.5881,3.6037,3.6055,3.591,3.5911,3.5912,0,3.5543,3.5589,3.5562,3.5592,3.5641,3.5615,3.5665,3.5661,3.5664,3.5691,3.5657,3.5683,3.5656,3.5679,3.5664,3.5708,3.5713,3.5708,3.5704,3.5711,3.5712,3.5719,3.5713,3.5692,3.5691,3.5691,3.569,0,3.5431,3.547,3.5518,3.5525,3.5525,3.5548,3.5549,3.5552,3.5566,3.558,3.5588,3.5607,3.5617,3.5632,3.5613,3.5579,3.5666,3.5616,3.5661,3.5662,3.5682,3.5681,3.5823,3.5689,3.5689,3.5689,3.5688,0,3.5333,3.535,3.5422,3.5421,3.5432,3.5464,3.5481,3.5504,3.551,3.5502,3.5514,3.5489,3.5527,3.5478,3.5529,3.5491,3.5503,3.5501,3.5504,3.5507,3.5453,3.5536,3.5673,3.5686,3.5508,3.5507,3.5506,0,3.5209,3.5278,3.5257,3.5326,3.5356,3.5316,3.535,3.5357,3.535,3.5373,3.5365,3.5392,3.5352,3.5358,3.5386,3.5379,3.5428,3.5371,3.5404,3.5406,3.5404,3.553,3.5555,3.5644,3.5486,3.5488,3.549,0,3.5111,3.5112,3.5126,3.5132,3.5138,3.5163,3.5203,3.5224,3.5241,3.5252,3.5285,3.5322,3.5293,3.5304,3.5286,3.5316,3.5394,3.5281,3.5281,3.5302,3.5475,3.5498,3.5514,3.5375,3.5378,3.5379,3.5474,0,3.4966,3.5,3.5037,3.5054,3.507,3.5113,3.5095,3.5114,3.5095,3.5088,3.5135,3.5136,3.5158,3.5171,3.5153,3.5227,3.5212,3.5182,3.5133,3.5216,3.5247,3.5259,3.5089,3.5087,3.5086,3.5085,0,0,3.4851,3.4899,3.4876,3.4914,3.4927,3.4885,3.4933,3.494,3.4956,3.4965,3.4938,3.4992,3.4994,3.5054,3.5078,3.5087,3.5098,3.5071,3.5177,3.5187,3.5197,3.523,3.5243,3.5083,3.5082,3.5082,3.5082,0,3.4795,3.48,3.4848,3.4854,3.4864,3.4853,3.4865,3.4866,3.4864,3.4911,3.4876,3.4902,3.4947,3.4953,3.4963,3.5063,3.5035,3.5071,3.5131,3.5165,3.5177,3.5187,3.5222,3.5235,3.5078,3.5079,3.5079,0,3.4695,3.4697,3.4719,3.4746,3.4752,3.4784,3.4729,3.4765,3.4788,3.4741,3.4789,3.4787,3.4796,3.4855,3.488,3.4857,3.4979,3.4937,3.4945,3.4947,3.4979,3.4994,3.5007,3.4837,3.4836,3.4835,0,0,3.4649,3.4681,3.4675,3.4733,3.4739,3.4725,3.474,3.4724,3.4732,3.4736,3.4734,3.4743,3.4768,3.4786,3.4808,3.4876,3.4875,3.4908,3.492,3.4929,3.4937,3.4971,3.4985,3.4833,3.4832,3.4832,0,0,3.4627,3.4624,3.4604,3.4669,3.4678,3.4677,3.4712,3.4687,3.4707,3.47,3.4673,3.4674,3.4729,3.4729,3.4693,3.4791,3.4744,3.4752,3.4789,3.4803,3.4814,3.4813,3.4637,0,0,0,0,0,3.4562,3.4624,3.4606,3.4614,3.465,3.4687,3.4691,3.4671,3.4637,3.4666,3.466,3.4629,3.4704,3.4671,3.4679,3.472,3.4795,3.4802,3.4808,3.4872,3.4886,3.4899,0,0,0,0,0,0,3.4565,3.4575,3.4604,3.4606,3.4613,3.4684,3.4623,3.462,3.4634,3.4627,3.4631,3.4629,3.4613,3.4665,3.4673,3.4713,3.4634,3.4798,3.4803,3.4808,3.4877,3.4889,3.4899,0,0,0,0,0,3.4567,3.4575,3.4638,3.4605,3.4611,3.4599,3.4621,3.4617,3.4628,3.4619,3.4616,3.4611,3.4614,3.4619,3.4669,3.4709,3.4629,3.4631,3.4801,3.4806,3.481,3.4883,0,0,0,0,0,0,3.4569,3.4572,3.4638,3.464,3.458,3.4595,3.4597,3.4615,3.4618,3.4616,3.4598,3.4593,3.4616,3.462,3.4624,3.471,3.4624,3.4627,3.4629,3.4805,3.4808,3.4811,0,0,0,0,0,0,3.4567,3.4573,3.4639,3.4609,3.4607,3.4591,3.4593,3.4632,3.4619,3.4597,3.4592,3.4596,3.461,3.462,3.4623,3.4686,3.4621,3.4623,3.4625,3.4627,3.4808,3.481,0,0,0,0,0,0,3.4569,3.4575,3.4609,3.4607,3.4605,3.4617,3.4625,3.4663,3.4594,3.4597,3.4587,3.4584,3.4611,3.4614,3.4623,3.4685,3.4686,3.4621,3.4623,3.4624,3.4625,0,0,0,0,0,0,0,3.4571,3.4542,3.4631,3.4605,3.4603,3.4651,3.4651,3.4652,3.4593,3.4591,3.4588,3.4586,3.4604,3.4607,3.4611,3.4684,0,0,3.462,3.4622,0,0,0,0,0,0,0,0,3.4539,3.4541,3.4631,3.4632,3.4632,3.4651,3.4651,3.4651,3.4593,3.4591,3.4589,3.4587,3.4605,3.4608,3.461,0,0,0,0,0,0,0,0,0,0,0,0,0,0,0,3.4631,3.4632,0,3.4651,3.4651,3.4651,3.4593,3.4591,3.4589,3.4587,3.4606,3.4608,3.461,0,0,0,0,0,0,0,0,0,0,0,0,0,0,0,0,0,0,0,0,0,0,0,0,0,0,0,0,0,0,0,0,0,0,0,0,0,0,0,0,0,0,0,0,0,0,0,0,0,0,0,0,0,0,0,0,0,0,0,0,0,0,0,0,0,0,0,0,0]}]]]